Location: Rochester
(43.1547°N, 77.6158°W)
Time: 12:56:04
(UTC-05:00)

N. Korean satellite - Visible Passes

Search period start: 19 November 2017 00:00
Search period end: 29 November 2017 00:00
Orbit: 460 x 515 km, 97.2° (Epoch: 18 November)

Date Brightness Start Highest point End Pass type
(mag) Time Alt. Az. Time Alt. Az. Time Alt. Az.
19 Nov 9.6 06:14:39 10° NE 06:17:37 22° E 06:20:35 10° SSE visible
19 Nov 7.2 18:24:38 10° S 18:28:04 55° W 18:31:34 10° NNW visible
20 Nov 10.2 05:52:30 10° ENE 05:53:59 12° E 05:55:27 10° ESE visible
20 Nov 6.4 18:01:07 10° SSE 18:04:35 70° ENE 18:08:08 10° N visible
21 Nov 7.1 17:37:59 10° SE 17:41:11 34° ENE 17:44:27 10° N visible
21 Nov 9.7 19:12:52 10° SW 19:14:51 14° W 19:16:53 10° WNW visible
22 Nov 8.2 06:37:14 10° NNE 06:40:49 41° E 06:44:23 10° S visible
22 Nov 7.9 17:15:20 10° ESE 17:17:52 19° ENE 17:20:26 10° NNE visible
22 Nov 8.7 18:48:10 10° SSW 18:51:12 27° W 18:54:18 10° NW visible
23 Nov 9.5 06:14:15 10° NE 06:17:14 22° E 06:20:13 10° SSE visible
23 Nov 7.2 18:24:10 10° S 18:27:37 55° W 18:31:10 10° NNW visible
24 Nov 10.2 05:52:04 10° ENE 05:53:34 12° E 05:55:04 10° ESE visible
24 Nov 6.4 18:00:37 10° SSE 18:04:08 70° ENE 18:07:44 10° N visible
25 Nov 7.1 17:37:29 10° SE 17:40:43 34° ENE 17:44:02 10° N visible
25 Nov 9.7 19:12:19 10° SW 19:14:23 15° W 19:16:29 10° NW visible
26 Nov 8.2 06:36:48 10° NNE 06:40:24 41° E 06:43:58 10° S visible
26 Nov 7.9 17:14:50 10° ESE 17:17:23 19° ENE 17:19:59 10° NNE visible
26 Nov 8.7 18:47:38 10° SSW 18:50:43 28° W 18:53:52 10° NW visible
27 Nov 9.5 06:13:47 10° NE 06:16:47 22° E 06:19:46 10° SSE visible
27 Nov 7.2 18:23:39 10° S 18:27:08 56° W 18:30:43 10° NNW visible
28 Nov 10.1 05:51:36 10° ENE 05:53:05 12° E 05:54:35 10° ESE visible
28 Nov 6.4 18:00:05 10° SSE 18:03:38 70° ENE 18:07:15 10° N visible
